This is the latest recevied weather packets stored in our database for station/object OE7AOT-10. If no packets are shown the sender has not sent any weather packets the latest 10 day(s).
| Time | Temp. | Humidity | Pressure | Rain* | Wind** | Luminosity | Snow |
|---|---|---|---|---|---|---|---|
| 1777887328 | 25° C | 28% | 1023.5 hPa | - | - | - | - |
| 1777886428 | 25° C | 29% | 1023.6 hPa | - | - | - | - |
| 1777885528 | 25° C | 29% | 1023.7 hPa | - | - | - | - |
| 1777884627 | 25° C | 29% | 1023.9 hPa | - | - | - | - |
| 1777883727 | 25° C | 29% | 1024.1 hPa | - | - | - | - |
| 1777882827 | 24.44° C | 30% | 1024 hPa | - | - | - | - |
| 1777881927 | 25° C | 28% | 1024.3 hPa | - | - | - | - |
| 1777881027 | 25° C | 28% | 1024.4 hPa | - | - | - | - |
| 1777880127 | 24.44° C | 28% | 1024.4 hPa | - | - | - | - |
| 1777879227 | 24.44° C | 29% | 1024.5 hPa | - | - | - | - |
| 1777878327 | 23.89° C | 29% | 1024.6 hPa | - | - | - | - |
| 1777877426 | 25° C | 29% | 1024.6 hPa | - | - | - | - |
| 1777876526 | 25° C | 29% | 1024.6 hPa | - | - | - | - |
| 1777875626 | 25° C | 29% | 1024.6 hPa | - | - | - | - |
| 1777874726 | 25° C | 29% | 1024.7 hPa | - | - | - | - |
| 1777873825 | 25° C | 29% | 1024.6 hPa | - | - | - | - |
| 1777872925 | 24.44° C | 29% | 1024.7 hPa | - | - | - | - |
| 1777872025 | 24.44° C | 29% | 1024.8 hPa | - | - | - | - |
| 1777871125 | 23.33° C | 31% | 1024.8 hPa | - | - | - | - |
| 1777870225 | 23.33° C | 31% | 1024.8 hPa | - | - | - | - |
| 1777869324 | 23.33° C | 31% | 1024.8 hPa | - | - | - | - |
| 1777868424 | 23.33° C | 31% | 1024.7 hPa | - | - | - | - |
| 1777867524 | 23.33° C | 30% | 1024.6 hPa | - | - | - | - |
| 1777866624 | 23.33° C | 31% | 1024.6 hPa | - | - | - | - |
| 1777865723 | 23.33° C | 31% | 1024.7 hPa | - | - | - | - |
* Rain since midnight (hover to see other rain measurements)
** Current wind speed in m/s (hover to see current wind gust speed)